Location: ??????
(56.0120°N, 39.1740°E)
Time: 20:16:51
(UTC+00:00)

Landsat 5 - Pass Details

Date: 14 April 2026
Orbit: 507 x 601 km, 98.1° (Epoch: 16 May)

Event Time Altitude Azimuth Distance (km) Brightness Sun altitude
Rises 22:07:51 0° 14° (NNE) 2,828 8.4 -23.7°
Reaches altitude 10° 22:10:00 10° 13° (NNE) 1,933 7.2 -23.6°
Maximum altitude 22:14:12 75° 289° (WNW) 624 3.4 -23.5°
Enters shadow 22:14:16 75° 277° (W) 625 3.4 -23.5°
